owner,sensor,date,latitude,longitude,air_pressure(mBar),qcFlag 
WAVCIS,ioos:station:WAVCIS:CSI09:1,2009-02-01T00:00:00Z,29.1015,-89.9782,1022.72,11111222 
WAVCIS,ioos:station:WAVCIS:CSI09:1,2009-02-01T01:00:00Z,29.1015,-89.9782,1022.93,11111222 
WAVCIS,ioos:station:WAVCIS:CSI09:1,2009-02-01T02:00:00Z,29.1015,-89.9782,1023.09,11111222 
WAVCIS,ioos:station:WAVCIS:CSI09:1,2009-02-01T03:00:00Z,29.1015,-89.9782,1023.1,11111222 
WAVCIS,ioos:station:WAVCIS:CSI09:1,2009-02-01T04:00:00Z,29.1015,-89.9782,1022.75,11111222 
WAVCIS,ioos:station:WAVCIS:CSI09:1,2009-02-01T05:00:00Z,29.1015,-89.9782,1022.34,11111222 
WAVCIS,ioos:station:WAVCIS:CSI09:1,2009-02-01T06:00:00Z,29.1015,-89.9782,1021.82,11111222 
WAVCIS,ioos:station:WAVCIS:CSI09:1,2009-02-01T07:00:00Z,29.1015,-89.9782,1021.27,11111222 
WAVCIS,ioos:station:WAVCIS:CSI09:1,2009-02-01T08:00:00Z,29.1015,-89.9782,1021.02,11111222 
WAVCIS,ioos:station:WAVCIS:CSI09:1,2009-02-01T09:00:00Z,29.1015,-89.9782,1020.68,11111222 
WAVCIS,ioos:station:WAVCIS:CSI09:1,2009-02-01T10:00:00Z,29.1015,-89.9782,1020.25,11111222 
WAVCIS,ioos:station:WAVCIS:CSI09:1,2009-02-01T11:00:00Z,29.1015,-89.9782,1019.94,11111222 
WAVCIS,ioos:station:WAVCIS:CSI09:1,2009-02-01T12:00:00Z,29.1015,-89.9782,1019.96,11111222 
WAVCIS,ioos:station:WAVCIS:CSI09:1,2009-02-01T13:00:00Z,29.1015,-89.9782,1020.31,11111222 
WAVCIS,ioos:station:WAVCIS:CSI09:1,2009-02-01T14:00:00Z,29.1015,-89.9782,1020.45,11111222 
WAVCIS,ioos:station:WAVCIS:CSI09:1,2009-02-01T15:00:00Z,29.1015,-89.9782,1020.46,11111222 
WAVCIS,ioos:station:WAVCIS:CSI09:1,2009-02-01T16:00:00Z,29.1015,-89.9782,1020.36,11111222 
WAVCIS,ioos:station:WAVCIS:CSI09:1,2009-02-01T17:00:00Z,29.1015,-89.9782,1019.44,11111222 
WAVCIS,ioos:station:WAVCIS:CSI09:1,2009-02-01T18:00:00Z,29.1015,-89.9782,1018.36,11111222 
WAVCIS,ioos:station:WAVCIS:CSI09:1,2009-02-01T19:00:00Z,29.1015,-89.9782,1016.85,11111222 
WAVCIS,ioos:station:WAVCIS:CSI09:1,2009-02-01T20:00:00Z,29.1015,-89.9782,1015.85,11111222 
WAVCIS,ioos:station:WAVCIS:CSI09:1,2009-02-01T21:00:00Z,29.1015,-89.9782,1015.56,11111222 
WAVCIS,ioos:station:WAVCIS:CSI09:1,2009-02-01T22:00:00Z,29.1015,-89.9782,1015.51,11111222 
WAVCIS,ioos:station:WAVCIS:CSI09:1,2009-02-01T23:00:00Z,29.1015,-89.9782,1015.16,11111222 
WAVCIS,ioos:station:WAVCIS:CSI09:1,2009-02-02T00:00:00Z,29.1015,-89.9782,1015.11,11111222 
WAVCIS,ioos:station:WAVCIS:CSI09:1,2009-02-02T01:00:00Z,29.1015,-89.9782,1015.01,11111222 
WAVCIS,ioos:station:WAVCIS:CSI09:1,2009-02-02T02:00:00Z,29.1015,-89.9782,1015.34,11111222 
WAVCIS,ioos:station:WAVCIS:CSI09:1,2009-02-02T03:00:00Z,29.1015,-89.9782,1015.46,11111222 
WAVCIS,ioos:station:WAVCIS:CSI09:1,2009-02-02T04:00:00Z,29.1015,-89.9782,1015.29,11111222 
WAVCIS,ioos:station:WAVCIS:CSI09:1,2009-02-02T05:00:00Z,29.1015,-89.9782,1014.38,11111222 
WAVCIS,ioos:station:WAVCIS:CSI09:1,2009-02-02T06:00:00Z,29.1015,-89.9782,1013.53,11111222 
WAVCIS,ioos:station:WAVCIS:CSI09:1,2009-02-02T07:00:00Z,29.1015,-89.9782,1013.21,11111222 
WAVCIS,ioos:station:WAVCIS:CSI09:1,2009-02-02T08:00:00Z,29.1015,-89.9782,1012.9,11111222 
WAVCIS,ioos:station:WAVCIS:CSI09:1,2009-02-02T09:00:00Z,29.1015,-89.9782,1012.74,11111222 
WAVCIS,ioos:station:WAVCIS:CSI09:1,2009-02-02T10:00:00Z,29.1015,-89.9782,1012.88,11111222 
WAVCIS,ioos:station:WAVCIS:CSI09:1,2009-02-02T11:00:00Z,29.1015,-89.9782,1013.36,11111222 
WAVCIS,ioos:station:WAVCIS:CSI09:1,2009-02-02T12:00:00Z,29.1015,-89.9782,1013.55,11111222 
WAVCIS,ioos:station:WAVCIS:CSI09:1,2009-02-02T13:00:00Z,29.1015,-89.9782,1013.07,11111222 
WAVCIS,ioos:station:WAVCIS:CSI09:1,2009-02-02T14:00:00Z,29.1015,-89.9782,1013.21,11111222 
WAVCIS,ioos:station:WAVCIS:CSI09:1,2009-02-02T15:00:00Z,29.1015,-89.9782,1014.26,11111222 
WAVCIS,ioos:station:WAVCIS:CSI09:1,2009-02-02T16:00:00Z,29.1015,-89.9782,1014.52,11111222 
WAVCIS,ioos:station:WAVCIS:CSI09:1,2009-02-02T17:00:00Z,29.1015,-89.9782,1014.23,11111222 
WAVCIS,ioos:station:WAVCIS:CSI09:1,2009-02-02T18:00:00Z,29.1015,-89.9782,1013.83,11111222 
WAVCIS,ioos:station:WAVCIS:CSI09:1,2009-02-02T19:00:00Z,29.1015,-89.9782,1012.99,11111222 
WAVCIS,ioos:station:WAVCIS:CSI09:1,2009-02-02T20:00:00Z,29.1015,-89.9782,1013.2,11111222 
WAVCIS,ioos:station:WAVCIS:CSI09:1,2009-02-02T21:00:00Z,29.1015,-89.9782,1013.9,11111222 
WAVCIS,ioos:station:WAVCIS:CSI09:1,2009-02-02T22:00:00Z,29.1015,-89.9782,1015.16,11111222 
WAVCIS,ioos:station:WAVCIS:CSI09:1,2009-02-02T23:00:00Z,29.1015,-89.9782,1016.14,11111222 
WAVCIS,ioos:station:WAVCIS:CSI09:1,2009-02-03T00:00:00Z,29.1015,-89.9782,1017.13,11111222 
WAVCIS,ioos:station:WAVCIS:CSI09:1,2009-02-03T01:00:00Z,29.1015,-89.9782,1017.75,11111222 
WAVCIS,ioos:station:WAVCIS:CSI09:1,2009-02-03T02:00:00Z,29.1015,-89.9782,1018.68,11111222 
WAVCIS,ioos:station:WAVCIS:CSI09:1,2009-02-03T03:00:00Z,29.1015,-89.9782,1019.9,11111222 
WAVCIS,ioos:station:WAVCIS:CSI09:1,2009-02-03T04:00:00Z,29.1015,-89.9782,1020.64,11111222 
WAVCIS,ioos:station:WAVCIS:CSI09:1,2009-02-03T05:00:00Z,29.1015,-89.9782,1021.3,11111222 
WAVCIS,ioos:station:WAVCIS:CSI09:1,2009-02-03T06:00:00Z,29.1015,-89.9782,1021.65,11111222 
WAVCIS,ioos:station:WAVCIS:CSI09:1,2009-02-03T07:00:00Z,29.1015,-89.9782,1021.8,11111222 
WAVCIS,ioos:station:WAVCIS:CSI09:1,2009-02-03T08:00:00Z,29.1015,-89.9782,1021.8,11111222 
WAVCIS,ioos:station:WAVCIS:CSI09:1,2009-02-03T09:00:00Z,29.1015,-89.9782,1021.89,11111222 
WAVCIS,ioos:station:WAVCIS:CSI09:1,2009-02-03T10:00:00Z,29.1015,-89.9782,1021.83,11111222 
WAVCIS,ioos:station:WAVCIS:CSI09:1,2009-02-03T11:00:00Z,29.1015,-89.9782,1022.35,11111222 
WAVCIS,ioos:station:WAVCIS:CSI09:1,2009-02-03T12:00:00Z,29.1015,-89.9782,1022.59,11111222 
WAVCIS,ioos:station:WAVCIS:CSI09:1,2009-02-03T13:00:00Z,29.1015,-89.9782,1023.2,11111222 
WAVCIS,ioos:station:WAVCIS:CSI09:1,2009-02-03T14:00:00Z,29.1015,-89.9782,1023.81,11111222 
WAVCIS,ioos:station:WAVCIS:CSI09:1,2009-02-03T15:00:00Z,29.1015,-89.9782,1024.64,11111222 
WAVCIS,ioos:station:WAVCIS:CSI09:1,2009-02-03T16:00:00Z,29.1015,-89.9782,1025.4,11111222 
WAVCIS,ioos:station:WAVCIS:CSI09:1,2009-02-03T17:00:00Z,29.1015,-89.9782,1025.22,11111222 
WAVCIS,ioos:station:WAVCIS:CSI09:1,2009-02-03T18:00:00Z,29.1015,-89.9782,1024.5,11111222 
WAVCIS,ioos:station:WAVCIS:CSI09:1,2009-02-03T19:00:00Z,29.1015,-89.9782,1023.56,11111222 
WAVCIS,ioos:station:WAVCIS:CSI09:1,2009-02-03T20:00:00Z,29.1015,-89.9782,1022.68,11111222 
WAVCIS,ioos:station:WAVCIS:CSI09:1,2009-02-03T21:00:00Z,29.1015,-89.9782,1022.34,11111222 
WAVCIS,ioos:station:WAVCIS:CSI09:1,2009-02-03T22:00:00Z,29.1015,-89.9782,1022.32,11111222 
WAVCIS,ioos:station:WAVCIS:CSI09:1,2009-02-03T23:00:00Z,29.1015,-89.9782,1022.45,11111222 
WAVCIS,ioos:station:WAVCIS:CSI09:1,2009-02-04T00:00:00Z,29.1015,-89.9782,1022.75,11111222 
WAVCIS,ioos:station:WAVCIS:CSI09:1,2009-02-04T01:00:00Z,29.1015,-89.9782,1023.32,11111222 
WAVCIS,ioos:station:WAVCIS:CSI09:1,2009-02-04T02:00:00Z,29.1015,-89.9782,1023.82,11111222 
WAVCIS,ioos:station:WAVCIS:CSI09:1,2009-02-04T03:00:00Z,29.1015,-89.9782,1024.08,11111222 
WAVCIS,ioos:station:WAVCIS:CSI09:1,2009-02-04T04:00:00Z,29.1015,-89.9782,1024.68,11111222 
WAVCIS,ioos:station:WAVCIS:CSI09:1,2009-02-04T05:00:00Z,29.1015,-89.9782,1024.95,11111222 
WAVCIS,ioos:station:WAVCIS:CSI09:1,2009-02-04T06:00:00Z,29.1015,-89.9782,1024.87,11111222 
WAVCIS,ioos:station:WAVCIS:CSI09:1,2009-02-04T07:00:00Z,29.1015,-89.9782,1025.27,11111222 
WAVCIS,ioos:station:WAVCIS:CSI09:1,2009-02-04T08:00:00Z,29.1015,-89.9782,1025.72,11111222 
WAVCIS,ioos:station:WAVCIS:CSI09:1,2009-02-04T09:00:00Z,29.1015,-89.9782,1026.26,11111222 
WAVCIS,ioos:station:WAVCIS:CSI09:1,2009-02-04T10:00:00Z,29.1015,-89.9782,1026.92,11111222 
WAVCIS,ioos:station:WAVCIS:CSI09:1,2009-02-04T11:00:00Z,29.1015,-89.9782,1028.02,11111222 
WAVCIS,ioos:station:WAVCIS:CSI09:1,2009-02-04T12:00:00Z,29.1015,-89.9782,1029.24,11111222 
WAVCIS,ioos:station:WAVCIS:CSI09:1,2009-02-04T13:00:00Z,29.1015,-89.9782,1030.25,11111222 
WAVCIS,ioos:station:WAVCIS:CSI09:1,2009-02-04T14:00:00Z,29.1015,-89.9782,1031.17,11111222 
WAVCIS,ioos:station:WAVCIS:CSI09:1,2009-02-04T15:00:00Z,29.1015,-89.9782,1032.15,11111222 
WAVCIS,ioos:station:WAVCIS:CSI09:1,2009-02-04T16:00:00Z,29.1015,-89.9782,1033.12,11111222 
WAVCIS,ioos:station:WAVCIS:CSI09:1,2009-02-04T17:00:00Z,29.1015,-89.9782,1033.35,11111222 
WAVCIS,ioos:station:WAVCIS:CSI09:1,2009-02-04T18:00:00Z,29.1015,-89.9782,1032.52,11111222 
WAVCIS,ioos:station:WAVCIS:CSI09:1,2009-02-04T19:00:00Z,29.1015,-89.9782,1031.71,11111222 
WAVCIS,ioos:station:WAVCIS:CSI09:1,2009-02-04T20:00:00Z,29.1015,-89.9782,1031.65,11111222 
WAVCIS,ioos:station:WAVCIS:CSI09:1,2009-02-04T21:00:00Z,29.1015,-89.9782,1032.17,11111222 
WAVCIS,ioos:station:WAVCIS:CSI09:1,2009-02-04T22:00:00Z,29.1015,-89.9782,1032.7,11111222 
WAVCIS,ioos:station:WAVCIS:CSI09:1,2009-02-04T23:00:00Z,29.1015,-89.9782,1032.75,11111222 
WAVCIS,ioos:station:WAVCIS:CSI09:1,2009-02-05T00:00:00Z,29.1015,-89.9782,1032.92,11111222 
WAVCIS,ioos:station:WAVCIS:CSI09:1,2009-02-05T01:00:00Z,29.1015,-89.9782,1033.31,11111222 
WAVCIS,ioos:station:WAVCIS:CSI09:1,2009-02-05T02:00:00Z,29.1015,-89.9782,1033.75,11111222 
WAVCIS,ioos:station:WAVCIS:CSI09:1,2009-02-05T03:00:00Z,29.1015,-89.9782,1034.11,11111222 
WAVCIS,ioos:station:WAVCIS:CSI09:1,2009-02-05T04:00:00Z,29.1015,-89.9782,1034.33,11111222 
WAVCIS,ioos:station:WAVCIS:CSI09:1,2009-02-05T05:00:00Z,29.1015,-89.9782,1034.34,11111222 
WAVCIS,ioos:station:WAVCIS:CSI09:1,2009-02-05T06:00:00Z,29.1015,-89.9782,1033.92,11111222 
WAVCIS,ioos:station:WAVCIS:CSI09:1,2009-02-05T07:00:00Z,29.1015,-89.9782,1033.78,11111222 
WAVCIS,ioos:station:WAVCIS:CSI09:1,2009-02-05T08:00:00Z,29.1015,-89.9782,1033.77,11111222 
WAVCIS,ioos:station:WAVCIS:CSI09:1,2009-02-05T09:00:00Z,29.1015,-89.9782,1033.46,11111222 
WAVCIS,ioos:station:WAVCIS:CSI09:1,2009-02-05T10:00:00Z,29.1015,-89.9782,1033.36,11111222 
WAVCIS,ioos:station:WAVCIS:CSI09:1,2009-02-05T11:00:00Z,29.1015,-89.9782,1033.67,11111222 
WAVCIS,ioos:station:WAVCIS:CSI09:1,2009-02-05T12:00:00Z,29.1015,-89.9782,1033.62,11111222 
WAVCIS,ioos:station:WAVCIS:CSI09:1,2009-02-05T13:00:00Z,29.1015,-89.9782,1033.81,11111222 
WAVCIS,ioos:station:WAVCIS:CSI09:1,2009-02-05T14:00:00Z,29.1015,-89.9782,1034.15,11111222 
WAVCIS,ioos:station:WAVCIS:CSI09:1,2009-02-05T15:00:00Z,29.1015,-89.9782,1034.56,11111222 
WAVCIS,ioos:station:WAVCIS:CSI09:1,2009-02-05T16:00:00Z,29.1015,-89.9782,1035.14,11111222 
WAVCIS,ioos:station:WAVCIS:CSI09:1,2009-02-05T17:00:00Z,29.1015,-89.9782,1035.41,11111222 
WAVCIS,ioos:station:WAVCIS:CSI09:1,2009-02-05T18:00:00Z,29.1015,-89.9782,1034.78,11111222 
WAVCIS,ioos:station:WAVCIS:CSI09:1,2009-02-05T19:00:00Z,29.1015,-89.9782,1033.66,11111222 
WAVCIS,ioos:station:WAVCIS:CSI09:1,2009-02-05T20:00:00Z,29.1015,-89.9782,1033.06,11111222 
WAVCIS,ioos:station:WAVCIS:CSI09:1,2009-02-05T21:00:00Z,29.1015,-89.9782,1032.78,11111222 
WAVCIS,ioos:station:WAVCIS:CSI09:1,2009-02-05T22:00:00Z,29.1015,-89.9782,1032.44,11111222 
WAVCIS,ioos:station:WAVCIS:CSI09:1,2009-02-05T23:00:00Z,29.1015,-89.9782,1032.27,11111222 
WAVCIS,ioos:station:WAVCIS:CSI09:1,2009-02-06T00:00:00Z,29.1015,-89.9782,1032.26,11111222 
WAVCIS,ioos:station:WAVCIS:CSI09:1,2009-02-06T01:00:00Z,29.1015,-89.9782,1032.35,11111222 
WAVCIS,ioos:station:WAVCIS:CSI09:1,2009-02-06T02:00:00Z,29.1015,-89.9782,1032.26,11111222 
WAVCIS,ioos:station:WAVCIS:CSI09:1,2009-02-06T03:00:00Z,29.1015,-89.9782,1032.3,11111222 
WAVCIS,ioos:station:WAVCIS:CSI09:1,2009-02-06T04:00:00Z,29.1015,-89.9782,1032.33,11111222 
WAVCIS,ioos:station:WAVCIS:CSI09:1,2009-02-06T05:00:00Z,29.1015,-89.9782,1032.2,11111222 
WAVCIS,ioos:station:WAVCIS:CSI09:1,2009-02-06T06:00:00Z,29.1015,-89.9782,1031.66,11111222 
WAVCIS,ioos:station:WAVCIS:CSI09:1,2009-02-06T07:00:00Z,29.1015,-89.9782,1031.29,11111222 
WAVCIS,ioos:station:WAVCIS:CSI09:1,2009-02-06T08:00:00Z,29.1015,-89.9782,1030.89,11111222 
WAVCIS,ioos:station:WAVCIS:CSI09:1,2009-02-06T09:00:00Z,29.1015,-89.9782,1030.54,11111222 
WAVCIS,ioos:station:WAVCIS:CSI09:1,2009-02-06T10:00:00Z,29.1015,-89.9782,1030.18,11111222 
WAVCIS,ioos:station:WAVCIS:CSI09:1,2009-02-06T11:00:00Z,29.1015,-89.9782,1030.13,11111222 
WAVCIS,ioos:station:WAVCIS:CSI09:1,2009-02-06T12:00:00Z,29.1015,-89.9782,1030.25,11111222 
WAVCIS,ioos:station:WAVCIS:CSI09:1,2009-02-06T13:00:00Z,29.1015,-89.9782,1030.23,11111222 
WAVCIS,ioos:station:WAVCIS:CSI09:1,2009-02-06T14:00:00Z,29.1015,-89.9782,1030.64,11111222 
WAVCIS,ioos:station:WAVCIS:CSI09:1,2009-02-06T15:00:00Z,29.1015,-89.9782,1030.88,11111222 
WAVCIS,ioos:station:WAVCIS:CSI09:1,2009-02-06T16:00:00Z,29.1015,-89.9782,1031.23,11111222 
WAVCIS,ioos:station:WAVCIS:CSI09:1,2009-02-06T17:00:00Z,29.1015,-89.9782,1031.24,11111222 
WAVCIS,ioos:station:WAVCIS:CSI09:1,2009-02-06T18:00:00Z,29.1015,-89.9782,1030.74,11111222 
WAVCIS,ioos:station:WAVCIS:CSI09:1,2009-02-06T19:00:00Z,29.1015,-89.9782,1030.05,11111222 
WAVCIS,ioos:station:WAVCIS:CSI09:1,2009-02-06T20:00:00Z,29.1015,-89.9782,1029.55,11111222 
WAVCIS,ioos:station:WAVCIS:CSI09:1,2009-02-06T21:00:00Z,29.1015,-89.9782,1029.22,11111222 
WAVCIS,ioos:station:WAVCIS:CSI09:1,2009-02-06T22:00:00Z,29.1015,-89.9782,1029.05,11111222 
WAVCIS,ioos:station:WAVCIS:CSI09:1,2009-02-06T23:00:00Z,29.1015,-89.9782,1028.67,11111222 
WAVCIS,ioos:station:WAVCIS:CSI09:1,2009-02-07T00:00:00Z,29.1015,-89.9782,1028.38,11111222 
WAVCIS,ioos:station:WAVCIS:CSI09:1,2009-02-07T01:00:00Z,29.1015,-89.9782,1028.28,11111222 
WAVCIS,ioos:station:WAVCIS:CSI09:1,2009-02-07T02:00:00Z,29.1015,-89.9782,1028.41,11111222 
WAVCIS,ioos:station:WAVCIS:CSI09:1,2009-02-07T03:00:00Z,29.1015,-89.9782,1028.06,11111222 
WAVCIS,ioos:station:WAVCIS:CSI09:1,2009-02-07T04:00:00Z,29.1015,-89.9782,1028.07,11111222 
WAVCIS,ioos:station:WAVCIS:CSI09:1,2009-02-07T05:00:00Z,29.1015,-89.9782,1028.1,11111222 
WAVCIS,ioos:station:WAVCIS:CSI09:1,2009-02-07T06:00:00Z,29.1015,-89.9782,1027.74,11111222 
WAVCIS,ioos:station:WAVCIS:CSI09:1,2009-02-07T07:00:00Z,29.1015,-89.9782,1027.78,11111222 
WAVCIS,ioos:station:WAVCIS:CSI09:1,2009-02-07T08:00:00Z,29.1015,-89.9782,1027.55,11111222 
WAVCIS,ioos:station:WAVCIS:CSI09:1,2009-02-07T09:00:00Z,29.1015,-89.9782,1027.3,11111222 
WAVCIS,ioos:station:WAVCIS:CSI09:1,2009-02-07T10:00:00Z,29.1015,-89.9782,1027.26,11111222 
WAVCIS,ioos:station:WAVCIS:CSI09:1,2009-02-07T11:00:00Z,29.1015,-89.9782,1027.3,11111222 
WAVCIS,ioos:station:WAVCIS:CSI09:1,2009-02-07T12:00:00Z,29.1015,-89.9782,1027.79,11111222 
WAVCIS,ioos:station:WAVCIS:CSI09:1,2009-02-07T13:00:00Z,29.1015,-89.9782,1027.99,11111222 
WAVCIS,ioos:station:WAVCIS:CSI09:1,2009-02-07T14:00:00Z,29.1015,-89.9782,1028.31,11111222 
WAVCIS,ioos:station:WAVCIS:CSI09:1,2009-02-07T15:00:00Z,29.1015,-89.9782,1028.27,11111222 
WAVCIS,ioos:station:WAVCIS:CSI09:1,2009-02-07T16:00:00Z,29.1015,-89.9782,1029.25,11111222 
WAVCIS,ioos:station:WAVCIS:CSI09:1,2009-02-07T17:00:00Z,29.1015,-89.9782,1029.67,11111222 
WAVCIS,ioos:station:WAVCIS:CSI09:1,2009-02-07T18:00:00Z,29.1015,-89.9782,1029.46,11111222 
WAVCIS,ioos:station:WAVCIS:CSI09:1,2009-02-07T19:00:00Z,29.1015,-89.9782,1028.7,11111222 
WAVCIS,ioos:station:WAVCIS:CSI09:1,2009-02-07T20:00:00Z,29.1015,-89.9782,1027.57,11111222 
WAVCIS,ioos:station:WAVCIS:CSI09:1,2009-02-07T21:00:00Z,29.1015,-89.9782,1026.66,11111222 
WAVCIS,ioos:station:WAVCIS:CSI09:1,2009-02-07T22:00:00Z,29.1015,-89.9782,1026.78,11111222 
WAVCIS,ioos:station:WAVCIS:CSI09:1,2009-02-07T23:00:00Z,29.1015,-89.9782,1026.75,11111222 
WAVCIS,ioos:station:WAVCIS:CSI09:1,2009-02-08T00:00:00Z,29.1015,-89.9782,1027.13,11111222 
WAVCIS,ioos:station:WAVCIS:CSI09:1,2009-02-08T01:00:00Z,29.1015,-89.9782,1027.41,11111222 
WAVCIS,ioos:station:WAVCIS:CSI09:1,2009-02-08T02:00:00Z,29.1015,-89.9782,1027.56,11111222 
WAVCIS,ioos:station:WAVCIS:CSI09:1,2009-02-08T03:00:00Z,29.1015,-89.9782,1027.64,11111222 
WAVCIS,ioos:station:WAVCIS:CSI09:1,2009-02-08T04:00:00Z,29.1015,-89.9782,1027.13,11111222 
WAVCIS,ioos:station:WAVCIS:CSI09:1,2009-02-08T05:00:00Z,29.1015,-89.9782,1027.23,11111222 
WAVCIS,ioos:station:WAVCIS:CSI09:1,2009-02-08T06:00:00Z,29.1015,-89.9782,1027.13,11111222 
WAVCIS,ioos:station:WAVCIS:CSI09:1,2009-02-08T07:00:00Z,29.1015,-89.9782,1026.78,11111222 
WAVCIS,ioos:station:WAVCIS:CSI09:1,2009-02-08T08:00:00Z,29.1015,-89.9782,1026.33,11111222 
WAVCIS,ioos:station:WAVCIS:CSI09:1,2009-02-08T09:00:00Z,29.1015,-89.9782,1026.28,11111222 
WAVCIS,ioos:station:WAVCIS:CSI09:1,2009-02-08T10:00:00Z,29.1015,-89.9782,1026.08,11111222 
WAVCIS,ioos:station:WAVCIS:CSI09:1,2009-02-08T11:00:00Z,29.1015,-89.9782,1026.61,11111222 
WAVCIS,ioos:station:WAVCIS:CSI09:1,2009-02-08T12:00:00Z,29.1015,-89.9782,1027.12,11111222 
WAVCIS,ioos:station:WAVCIS:CSI09:1,2009-02-08T13:00:00Z,29.1015,-89.9782,1027.7,11111222 
WAVCIS,ioos:station:WAVCIS:CSI09:1,2009-02-08T14:00:00Z,29.1015,-89.9782,1028.1,11111222 
WAVCIS,ioos:station:WAVCIS:CSI09:1,2009-02-08T15:00:00Z,29.1015,-89.9782,1028.7,11111222 
WAVCIS,ioos:station:WAVCIS:CSI09:1,2009-02-08T16:00:00Z,29.1015,-89.9782,1029.1,11111222 
WAVCIS,ioos:station:WAVCIS:CSI09:1,2009-02-08T17:00:00Z,29.1015,-89.9782,1029.15,11111222 
WAVCIS,ioos:station:WAVCIS:CSI09:1,2009-02-08T18:00:00Z,29.1015,-89.9782,1028.33,11111222 
WAVCIS,ioos:station:WAVCIS:CSI09:1,2009-02-08T19:00:00Z,29.1015,-89.9782,1027.01,11111222 
WAVCIS,ioos:station:WAVCIS:CSI09:1,2009-02-08T20:00:00Z,29.1015,-89.9782,1026.06,11111222 
WAVCIS,ioos:station:WAVCIS:CSI09:1,2009-02-08T21:00:00Z,29.1015,-89.9782,1025.63,11111222 
WAVCIS,ioos:station:WAVCIS:CSI09:1,2009-02-08T22:00:00Z,29.1015,-89.9782,1025.63,11111222 
WAVCIS,ioos:station:WAVCIS:CSI09:1,2009-02-08T23:00:00Z,29.1015,-89.9782,1025.1,11111222 
WAVCIS,ioos:station:WAVCIS:CSI09:1,2009-02-09T00:00:00Z,29.1015,-89.9782,1024.96,11111222 
WAVCIS,ioos:station:WAVCIS:CSI09:1,2009-02-09T01:00:00Z,29.1015,-89.9782,1024.84,11111222 
WAVCIS,ioos:station:WAVCIS:CSI09:1,2009-02-09T02:00:00Z,29.1015,-89.9782,1024.39,11111222 
WAVCIS,ioos:station:WAVCIS:CSI09:1,2009-02-09T03:00:00Z,29.1015,-89.9782,1023.82,11111222 
WAVCIS,ioos:station:WAVCIS:CSI09:1,2009-02-09T04:00:00Z,29.1015,-89.9782,1023.22,11111222 
WAVCIS,ioos:station:WAVCIS:CSI09:1,2009-02-09T05:00:00Z,29.1015,-89.9782,1023.04,11111222 
WAVCIS,ioos:station:WAVCIS:CSI09:1,2009-02-09T06:00:00Z,29.1015,-89.9782,1021.88,11111222 
WAVCIS,ioos:station:WAVCIS:CSI09:1,2009-02-09T07:00:00Z,29.1015,-89.9782,1021.18,11111222 
WAVCIS,ioos:station:WAVCIS:CSI09:1,2009-02-09T08:00:00Z,29.1015,-89.9782,1020.47,11111222 
WAVCIS,ioos:station:WAVCIS:CSI09:1,2009-02-09T09:00:00Z,29.1015,-89.9782,1020.34,11111222 
WAVCIS,ioos:station:WAVCIS:CSI09:1,2009-02-09T10:00:00Z,29.1015,-89.9782,1020.47,11111222 
WAVCIS,ioos:station:WAVCIS:CSI09:1,2009-02-09T11:00:00Z,29.1015,-89.9782,1020.5,11111222 
WAVCIS,ioos:station:WAVCIS:CSI09:1,2009-02-09T12:00:00Z,29.1015,-89.9782,1020.34,11111222 
WAVCIS,ioos:station:WAVCIS:CSI09:1,2009-02-09T13:00:00Z,29.1015,-89.9782,1020.72,11111222 
WAVCIS,ioos:station:WAVCIS:CSI09:1,2009-02-09T14:00:00Z,29.1015,-89.9782,1020.78,11111222 
WAVCIS,ioos:station:WAVCIS:CSI09:1,2009-02-09T15:00:00Z,29.1015,-89.9782,1020.93,11111222 
WAVCIS,ioos:station:WAVCIS:CSI09:1,2009-02-09T16:00:00Z,29.1015,-89.9782,1021.35,11111222 
WAVCIS,ioos:station:WAVCIS:CSI09:1,2009-02-09T17:00:00Z,29.1015,-89.9782,1021.58,11111222 
WAVCIS,ioos:station:WAVCIS:CSI09:1,2009-02-09T18:00:00Z,29.1015,-89.9782,1021.28,11111222 
WAVCIS,ioos:station:WAVCIS:CSI09:1,2009-02-09T19:00:00Z,29.1015,-89.9782,1020.3,11111222 
WAVCIS,ioos:station:WAVCIS:CSI09:1,2009-02-09T20:00:00Z,29.1015,-89.9782,1019.48,11111222 
WAVCIS,ioos:station:WAVCIS:CSI09:1,2009-02-09T21:00:00Z,29.1015,-89.9782,1018.9,11111222 
WAVCIS,ioos:station:WAVCIS:CSI09:1,2009-02-09T22:00:00Z,29.1015,-89.9782,1018.66,11111222 
WAVCIS,ioos:station:WAVCIS:CSI09:1,2009-02-09T23:00:00Z,29.1015,-89.9782,1018.62,11111222 
WAVCIS,ioos:station:WAVCIS:CSI09:1,2009-02-10T00:00:00Z,29.1015,-89.9782,1019.03,11111222 
WAVCIS,ioos:station:WAVCIS:CSI09:1,2009-02-10T01:00:00Z,29.1015,-89.9782,1018.85,11111222 
WAVCIS,ioos:station:WAVCIS:CSI09:1,2009-02-10T02:00:00Z,29.1015,-89.9782,1019.18,11111222 
WAVCIS,ioos:station:WAVCIS:CSI09:1,2009-02-10T03:00:00Z,29.1015,-89.9782,1019.15,11111222 
WAVCIS,ioos:station:WAVCIS:CSI09:1,2009-02-10T04:00:00Z,29.1015,-89.9782,1018.97,11111222 
WAVCIS,ioos:station:WAVCIS:CSI09:1,2009-02-10T05:00:00Z,29.1015,-89.9782,1019.19,11111222 
WAVCIS,ioos:station:WAVCIS:CSI09:1,2009-02-10T06:00:00Z,29.1015,-89.9782,1019.11,11111222 
WAVCIS,ioos:station:WAVCIS:CSI09:1,2009-02-10T07:00:00Z,29.1015,-89.9782,1018.79,11111222 
WAVCIS,ioos:station:WAVCIS:CSI09:1,2009-02-10T08:00:00Z,29.1015,-89.9782,1017.82,11111222 
WAVCIS,ioos:station:WAVCIS:CSI09:1,2009-02-10T09:00:00Z,29.1015,-89.9782,1016.68,11111222 
WAVCIS,ioos:station:WAVCIS:CSI09:1,2009-02-10T10:00:00Z,29.1015,-89.9782,1016.45,11111222 
WAVCIS,ioos:station:WAVCIS:CSI09:1,2009-02-10T11:00:00Z,29.1015,-89.9782,1016.35,11111222 
WAVCIS,ioos:station:WAVCIS:CSI09:1,2009-02-10T12:00:00Z,29.1015,-89.9782,1016.8,11111222 
WAVCIS,ioos:station:WAVCIS:CSI09:1,2009-02-10T13:00:00Z,29.1015,-89.9782,1016.95,11111222 
WAVCIS,ioos:station:WAVCIS:CSI09:1,2009-02-10T14:00:00Z,29.1015,-89.9782,1017.21,11111222 
WAVCIS,ioos:station:WAVCIS:CSI09:1,2009-02-10T15:00:00Z,29.1015,-89.9782,1017.49,11111222 
WAVCIS,ioos:station:WAVCIS:CSI09:1,2009-02-10T16:00:00Z,29.1015,-89.9782,1017.95,11111222 
WAVCIS,ioos:station:WAVCIS:CSI09:1,2009-02-10T17:00:00Z,29.1015,-89.9782,1017.95,11111222 
WAVCIS,ioos:station:WAVCIS:CSI09:1,2009-02-10T18:00:00Z,29.1015,-89.9782,1017.29,11111222 
WAVCIS,ioos:station:WAVCIS:CSI09:1,2009-02-10T19:00:00Z,29.1015,-89.9782,1016.41,11111222 
WAVCIS,ioos:station:WAVCIS:CSI09:1,2009-02-10T20:00:00Z,29.1015,-89.9782,1015.73,11111222 
WAVCIS,ioos:station:WAVCIS:CSI09:1,2009-02-10T21:00:00Z,29.1015,-89.9782,1015.3,11111222 
WAVCIS,ioos:station:WAVCIS:CSI09:1,2009-02-10T22:00:00Z,29.1015,-89.9782,1014.92,11111222 
WAVCIS,ioos:station:WAVCIS:CSI09:1,2009-02-10T23:00:00Z,29.1015,-89.9782,1014.82,11111222 
WAVCIS,ioos:station:WAVCIS:CSI09:1,2009-02-11T00:00:00Z,29.1015,-89.9782,1014.91,11111222 
WAVCIS,ioos:station:WAVCIS:CSI09:1,2009-02-11T01:00:00Z,29.1015,-89.9782,1014.81,11111222 
WAVCIS,ioos:station:WAVCIS:CSI09:1,2009-02-11T02:00:00Z,29.1015,-89.9782,1014.54,11111222 
WAVCIS,ioos:station:WAVCIS:CSI09:1,2009-02-11T03:00:00Z,29.1015,-89.9782,1013.91,11111222 
WAVCIS,ioos:station:WAVCIS:CSI09:1,2009-02-11T04:00:00Z,29.1015,-89.9782,1014.07,11111222 
WAVCIS,ioos:station:WAVCIS:CSI09:1,2009-02-11T05:00:00Z,29.1015,-89.9782,1013.55,11111222 
WAVCIS,ioos:station:WAVCIS:CSI09:1,2009-02-11T06:00:00Z,29.1015,-89.9782,1012.92,11111222 
WAVCIS,ioos:station:WAVCIS:CSI09:1,2009-02-11T07:00:00Z,29.1015,-89.9782,1013.03,11111222 
WAVCIS,ioos:station:WAVCIS:CSI09:1,2009-02-11T08:00:00Z,29.1015,-89.9782,1011.82,11111222 
WAVCIS,ioos:station:WAVCIS:CSI09:1,2009-02-11T09:00:00Z,29.1015,-89.9782,1011.35,11111222 
WAVCIS,ioos:station:WAVCIS:CSI09:1,2009-02-11T10:00:00Z,29.1015,-89.9782,1011.23,11111222 
WAVCIS,ioos:station:WAVCIS:CSI09:1,2009-02-11T11:00:00Z,29.1015,-89.9782,1012.06,11111222 
WAVCIS,ioos:station:WAVCIS:CSI09:1,2009-02-11T12:00:00Z,29.1015,-89.9782,1012.52,11111222 
WAVCIS,ioos:station:WAVCIS:CSI09:1,2009-02-11T13:00:00Z,29.1015,-89.9782,1013.71,11111222 
WAVCIS,ioos:station:WAVCIS:CSI09:1,2009-02-11T14:00:00Z,29.1015,-89.9782,1015.03,11111222 
WAVCIS,ioos:station:WAVCIS:CSI09:1,2009-02-11T15:00:00Z,29.1015,-89.9782,1015.16,11111222 
WAVCIS,ioos:station:WAVCIS:CSI09:1,2009-02-11T16:00:00Z,29.1015,-89.9782,1015.83,11111222 
WAVCIS,ioos:station:WAVCIS:CSI09:1,2009-02-11T17:00:00Z,29.1015,-89.9782,1016.5,11111222 
WAVCIS,ioos:station:WAVCIS:CSI09:1,2009-02-11T18:00:00Z,29.1015,-89.9782,1016.75,11111222 
WAVCIS,ioos:station:WAVCIS:CSI09:1,2009-02-11T19:00:00Z,29.1015,-89.9782,1016.04,11111222 
WAVCIS,ioos:station:WAVCIS:CSI09:1,2009-02-11T20:00:00Z,29.1015,-89.9782,1016.06,11111222 
WAVCIS,ioos:station:WAVCIS:CSI09:1,2009-02-11T21:00:00Z,29.1015,-89.9782,1015.95,11111222 
WAVCIS,ioos:station:WAVCIS:CSI09:1,2009-02-11T22:00:00Z,29.1015,-89.9782,1016.16,11111222 